Olympia, WA
on Friday, February 15, 2013

Friday
Previous Day Next Day
Daily Summary
 ActualAverageRecord
Temperature
Mean Temperature °F 41°F  
Max Temperature 56°F 49°F 62°F (1996)
Min Temperature 31°F 33°F 10°F (1956)
Degree Days
Heating Degree Days 21 24  
Month to date heating degree days 345 361  
Since 1 July heating degree days 3383 3412  
Cooling Degree Days 0 0  
Month to date cooling degree days 0 0  
Year to date cooling degree days 0 0  
Moisture
Dew Point 40°F   
Average Humidity 81    
Maximum Humidity 100    
Minimum Humidity 61    
Precipitation
Precipitation 0.00 in 0.17 in 2.18 in (1970)
Month to date precipitation 0.60 2.96  
Year to date precipitation 4.51 10.80  
Wind
Wind Speed 5 mph   
Max Wind Speed 12 mph   
Max Gust Speed 17 mph   
Visibility 5 miles   
Events Fog   

Key: T is trace of precipitation, MM is missing value
Source: NWS Daily Summary
Time(PST)TemperatureDew PointHumidity Pressure Visibility Wind DirectionWind SpeedGust SpeedPrecipitationEvents Conditions
12:17 AM 45.0°F 44.1°F 97% 30.54 in 2.5 miles Calm Calm - N/A   Overcast
12:54 AM 45.0°F 45.0°F 100% 30.54 in 2.0 miles NNE 4.6 mph - N/A   Overcast
1:20 AM 45.0°F 45.0°F 100% 30.53 in 3.0 miles NNE 5.8 mph - N/A   Overcast
1:54 AM 45.0°F 45.0°F 100% 30.53 in 4.0 miles NNE 5.8 mph - N/A   Overcast
2:54 AM 45.0°F 44.1°F 97% 30.52 in 5.0 miles North 4.6 mph - N/A   Overcast
3:14 AM 45.0°F 44.1°F 97% 30.51 in 6.0 miles North 4.6 mph - N/A   Overcast
3:54 AM 45.0°F 44.1°F 97% 30.50 in 6.0 miles North 5.8 mph - N/A   Overcast
4:45 AM 45.0°F 44.1°F 97% 30.48 in 6.0 miles North 6.9 mph - N/A   Overcast
4:54 AM 45.0°F 44.1°F 97% 30.49 in 6.0 miles North 8.1 mph - N/A   Overcast
5:54 AM 45.0°F 44.1°F 97% 30.48 in 7.0 miles NNE 5.8 mph - N/A   Overcast
6:06 AM 45.0°F 44.1°F 97% 30.47 in 8.0 miles North 6.9 mph - N/A   Overcast
6:20 AM 45.0°F 44.1°F 97% 30.47 in 7.0 miles North 4.6 mph - N/A   Overcast
6:54 AM 45.0°F 44.1°F 97% 30.47 in 7.0 miles NNE 5.8 mph - N/A   Overcast
7:28 AM 45.0°F 43.0°F 93% 30.46 in 6.0 miles NNE 9.2 mph - N/A   Overcast
7:51 AM 44.6°F 42.8°F 93% 30.46 in 6.0 miles NNE 6.9 mph - N/A   Overcast
7:54 AM 45.0°F 43.0°F 93% 30.46 in 7.0 miles NNE 5.8 mph - N/A   Overcast
8:54 AM 45.0°F 42.1°F 90% 30.46 in 10.0 miles NE 9.2 mph - N/A   Overcast
9:54 AM 46.0°F 42.1°F 86% 30.45 in 10.0 miles NE 9.2 mph - N/A   Overcast
10:54 AM 46.9°F 43.0°F 86% 30.43 in 10.0 miles NNE 6.9 mph - N/A   Overcast
11:54 AM 50.0°F 43.0°F 77% 30.41 in 10.0 miles North 10.4 mph - N/A   Overcast
12:07 PM 51.1°F 43.0°F 74% 30.40 in 10.0 miles North 8.1 mph - N/A   Overcast
12:54 PM 52.0°F 41.0°F 66% 30.37 in 10.0 miles ENE 10.4 mph - N/A   Scattered Clouds
1:54 PM 53.1°F 42.1°F 66% 30.33 in 10.0 miles ENE 8.1 mph - N/A   Partly Cloudy
2:54 PM 55.0°F 42.1°F 62% 30.30 in 10.0 miles Variable 4.6 mph - N/A   Clear
3:54 PM 55.0°F 43.0°F 64% 30.28 in 10.0 miles North 8.1 mph - N/A   Clear
4:54 PM 53.1°F 42.1°F 66% 30.26 in 10.0 miles NE 6.9 mph - N/A   Clear
5:54 PM 48.0°F 41.0°F 77% 30.23 in 10.0 miles NNE 5.8 mph - N/A   Clear
6:54 PM 46.0°F 39.9°F 79% 30.23 in 10.0 miles North 3.5 mph - N/A   Clear
7:54 PM 42.1°F 39.0°F 89% 30.23 in 10.0 miles Calm Calm - N/A   Clear
8:54 PM 39.0°F 37.9°F 96% 30.23 in 9.0 miles Calm Calm - N/A   Clear
9:36 PM 36.0°F 35.1°F 97% 30.22 in 2.0 miles Calm Calm - N/A   Partly Cloudy
9:39 PM 37.0°F 36.0°F 96% 30.22 in 1.2 miles Calm Calm - N/A   Partly Cloudy
9:41 PM 37.0°F 36.0°F 96% 30.22 in 0.8 miles Calm Calm - N/A   Mist
9:54 PM 37.9°F 37.0°F 97% 30.22 in 0.5 miles Calm Calm - N/A Fog Fog
10:01 PM 36.0°F 35.1°F 97% 30.22 in 1.5 miles Calm Calm - N/A   Partly Cloudy
10:06 PM 36.0°F 35.1°F 97% 30.21 in 3.0 miles Calm Calm - N/A   Partly Cloudy
10:13 PM 34.0°F 34.0°F 100% 30.22 in 1.8 miles Calm Calm - N/A   Clear
10:15 PM 34.0°F 34.0°F 100% 30.22 in 1.0 miles Calm Calm - N/A   Mist
10:20 PM 35.1°F 34.0°F 96% 30.21 in 0.2 miles Calm Calm - N/A Fog Fog
10:35 PM 36.0°F 35.1°F 97% 30.22 in 1.0 miles Calm Calm - N/A   Mist
10:47 PM 34.0°F 34.0°F 100% 30.21 in 0.5 miles Calm Calm - N/A Fog Fog
10:54 PM 36.0°F 36.0°F 100% 30.21 in 0.5 miles Calm Calm - N/A Fog Fog
11:06 PM 33.1°F 32.0°F 96% 30.21 in 0.2 miles Calm Calm - N/A Fog Fog
11:25 PM 34.0°F 33.1°F 96% 30.20 in 0.8 miles Calm Calm - N/A   Mist
11:32 PM 34.0°F 34.0°F 100% 30.19 in 1.0 miles Calm Calm - N/A   Mist
11:39 PM 33.1°F 32.0°F 96% 30.19 in 0.2 miles Calm Calm - N/A Fog Fog
11:54 PM 34.0°F 34.0°F 100% 30.20 in 0.2 miles Calm Calm - N/A Fog Fog
Moon Phase
Feb. 15 Feb. 17 Feb. 25 Mar. 04 Mar. 11
Sunrise:07:15 AM (PST) Moon Rise:09:29 AM (PST)2/15
Sunset:05:36 PM (PST) Moon Set:No Moon Set/

Copyright © 2014 The Weather Underground, Inc.